Location: Zapote
(9.9191°N, 84.0597°W)
Time: 13:23:30
(UTC-06:00)

A-11 Canister half - Visible Passes

Search period start: 04 March 2021 00:00
Search period end: 14 March 2021 00:00
Orbit: 1516 x 1684 km, 47.2° (Epoch: 03 March)

Date Brightness Start Highest point End Pass type
(mag) Time Alt. Az. Time Alt. Az. Time Alt. Az.
04 Mar 10.5 18:41:20 10° WNW 18:49:32 34° SW 18:57:37 10° S visible
05 Mar 10.4 18:18:11 10° WNW 18:26:38 37° SW 18:34:58 10° SSE visible
06 Mar 10.4 05:08:38 10° SSW 05:17:49 42° SE 05:27:08 10° ENE visible
06 Mar 10.3 17:55:03 10° WNW 18:03:45 41° SW 18:12:17 10° SSE visible
07 Mar 10.4 04:45:56 10° SSW 04:54:53 39° SE 05:03:59 10° ENE visible
08 Mar 10.5 04:23:15 10° S 04:31:58 35° SE 04:40:48 10° ENE visible
09 Mar 10.6 04:00:37 10° S 04:09:02 32° SE 04:17:36 10° ENE visible
10 Mar 10.6 03:37:59 10° S 03:46:07 29° SE 03:54:21 10° ENE visible
11 Mar 10.7 03:15:25 10° S 03:23:11 26° SE 03:31:04 10° ENE visible
11 Mar 9.2 05:18:00 10° SW 05:27:50 68° NW 05:37:56 10° NNE visible
12 Mar 10.7 02:53:35 12° S 03:00:15 24° SE 03:07:44 10° ENE visible
12 Mar 9.1 04:55:02 10° SW 05:04:53 73° NW 05:15:02 10° NE visible
13 Mar 10.8 02:33:32 17° SSE 02:37:19 22° SE 02:44:20 10° E visible
13 Mar 9.1 04:32:04 10° SW 04:41:57 79° NW 04:52:06 10° NE visible
